Weather History for Crestview, FL

Change the Weather History Date:

Sunday, March 24, 2013

  Actual Average Record
Temperature  
Mean Temperature 68 °F -  
Max Temperature 84 °F 73 °F 87 °F (1991)
Min Temperature 48 °F 45 °F 28 °F (2002)
Cooling Degree Days 4    
Growing Degree Days 18 (Base 50)    
Moisture  
Dew Point 54 °F    
Average Humidity 64    
Maximum Humidity 94    
Minimum Humidity 21    
Precipitation  
Precipitation 0.04 in - - ()
Sea Level Pressure  
Sea Level Pressure 29.67 in    
Wind  
Wind Speed 9 mph (West)    
Max Wind Speed 24 mph    
Max Gust Speed 33 mph    
Visibility 8 miles    
Events Rain    
Averages and records for this station are not official NWS values.
T = Trace of Precipitation, MM = Missing Value Source: NWS Daily Summary

Daily Weather History Graph

Daily Weather History Graph

Search for Another Location

Airport:

Trip Planner

Search our weather history database for the weather conditions in past years. The results will help you decide how hot, cold, wet, or windy it might be!

Date:

Astronomy

Mar. 24, 2013 Rise Set
Actual Time 6:44 AM CDT 7:00 PM CDT
Civil Twilight 6:20 AM CDT 7:24 PM CDT
Nautical Twilight 5:52 AM CDT 7:52 PM CDT
Astronomical Twilight 5:23 AM CDT 8:21 PM CDT
Moon 4:36 PM CDT (3/24) 4:44 AM CDT (3/24)
Length of Visible Light 13h 03m
Length of Day
12h 15m
Waxing Gibbous, 92% of the Moon is Illuminated
Mar 24
Waxing Gibbous
Mar 27
Full
Apr 2
Last Quarter
Apr 10
New
Apr 18
First Quarter

Hourly Weather History & Observations

Time (CDT) Temp. Heat Index Dew Point Humidity Pressure Visibility Wind Dir Wind Speed Gust Speed Precip Events Conditions
12:13 AM 64.4 °F - 62.6 °F 94% 29.63 in 2.5 mi Calm Calm - 0.00 in Rain Light Rain
12:29 AM 64.4 °F - 62.6 °F 94% 29.63 in 1.8 mi Calm Calm - 0.00 in Rain Light Rain
12:36 AM 64.4 °F - 62.6 °F 94% 29.63 in 2.5 mi Calm Calm - 0.00 in Rain Light Rain
12:50 AM 66.2 °F - 64.4 °F 94% 29.62 in 3.0 mi South 5.8 mph - 0.00 in Rain Light Rain
12:53 AM 68.0 °F - 64.9 °F 90% 29.62 in 3.0 mi South 6.9 mph - 0.00 in Rain Light Rain
1:07 AM 69.8 °F - 68.0 °F 94% 29.62 in 5.0 mi South 9.2 mph - 0.00 in Rain Light Rain
1:53 AM 73.0 °F - 70.0 °F 90% 29.60 in 2.5 mi SW 12.7 mph - 0.04 in Rain Rain
2:12 AM 73.4 °F - 69.8 °F 88% 29.60 in 5.0 mi SW 12.7 mph - 0.00 in Rain Light Rain
2:53 AM 73.0 °F - 70.0 °F 90% 29.58 in 3.0 mi SW 10.4 mph 24.2 mph 0.00 in Rain Light Rain
3:09 AM 73.4 °F - 69.8 °F 88% 29.58 in 2.0 mi SW 12.7 mph 21.9 mph 0.00 in Rain Light Rain
3:26 AM 71.6 °F - 69.8 °F 94% 29.58 in 4.0 mi SW 13.8 mph 21.9 mph 0.00 in   Overcast
3:53 AM 72.0 °F - 69.1 °F 91% 29.57 in 5.0 mi WSW 11.5 mph - 0.00 in   Overcast
4:53 AM 72.0 °F - 68.0 °F 87% 29.56 in 5.0 mi WSW 11.5 mph 19.6 mph N/A   Overcast
5:20 AM 71.6 °F - 68.0 °F 88% 29.57 in 5.0 mi SW 11.5 mph 20.7 mph N/A   Overcast
5:53 AM 71.1 °F - 68.0 °F 90% 29.56 in 5.0 mi SW 9.2 mph - N/A   Overcast
6:45 AM 71.6 °F - 68.0 °F 88% 29.57 in 4.0 mi West 8.1 mph - 0.00 in   Overcast
6:53 AM 71.1 °F - 66.9 °F 87% 29.57 in 5.0 mi West 11.5 mph 17.3 mph 0.00 in   Overcast
7:05 AM 71.6 °F - 66.2 °F 83% 29.59 in 5.0 mi West 13.8 mph 19.6 mph N/A   Overcast
7:25 AM 69.8 °F - 62.6 °F 78% 29.60 in 9.0 mi West 10.4 mph 19.6 mph N/A   Overcast
7:53 AM 69.1 °F - 61.0 °F 75% 29.60 in 10.0 mi NW 10.4 mph - N/A   Partly Cloudy
8:53 AM 69.1 °F - 57.9 °F 68% 29.62 in 10.0 mi West 6.9 mph - N/A   Clear
9:53 AM 72.0 °F - 57.0 °F 59% 29.63 in 10.0 mi West 5.8 mph - N/A   Clear
10:53 AM 77.0 °F - 55.0 °F 47% 29.66 in 10.0 mi WNW 9.2 mph 16.1 mph N/A   Clear
11:53 AM 80.1 °F 80.0 °F 54.0 °F 40% 29.66 in 10.0 mi WNW 12.7 mph 26.5 mph N/A   Clear
12:53 PM 81.0 °F 80.7 °F 55.0 °F 41% 29.63 in 10.0 mi WSW 11.5 mph 19.6 mph N/A   Clear
1:53 PM 82.9 °F 81.9 °F 54.0 °F 37% 29.62 in 10.0 mi WSW 12.7 mph 19.6 mph N/A   Clear
2:53 PM 84.9 °F 83.2 °F 53.1 °F 33% 29.60 in 10.0 mi West 13.8 mph 26.5 mph N/A   Partly Cloudy
3:53 PM 84.9 °F - 52.0 °F 32% 29.59 in 10.0 mi West 16.1 mph 20.7 mph N/A   Clear
4:53 PM 82.9 °F - 50.0 °F 32% 29.59 in 10.0 mi West 16.1 mph 26.5 mph N/A   Partly Cloudy
5:53 PM 81.0 °F - 37.0 °F 21% 29.62 in 10.0 mi West 12.7 mph 26.5 mph N/A   Clear
6:42 PM 71.6 °F - 51.8 °F 50% 29.68 in 9.0 mi NW 24.2 mph 33.4 mph N/A   Scattered Clouds
6:53 PM 69.1 °F - 48.9 °F 49% 29.68 in 10.0 mi WNW 17.3 mph 29.9 mph N/A   Scattered Clouds
7:09 PM 68.0 °F - 48.2 °F 49% 29.71 in 10.0 mi WNW 18.4 mph 27.6 mph N/A   Mostly Cloudy
7:23 PM 66.2 °F - 50.0 °F 56% 29.73 in 10.0 mi NW 19.6 mph 25.3 mph N/A   Scattered Clouds
7:53 PM 64.0 °F - 48.0 °F 56% 29.75 in 10.0 mi NW 17.3 mph 24.2 mph N/A   Partly Cloudy
8:22 PM 62.6 °F - 41.0 °F 45% 29.78 in 10.0 mi NW 19.6 mph 26.5 mph N/A   Mostly Cloudy
8:50 PM 60.8 °F - 41.0 °F 48% 29.79 in 10.0 mi NW 13.8 mph - N/A   Scattered Clouds
8:53 PM 61.0 °F - 41.0 °F 48% 29.79 in 10.0 mi NW 11.5 mph - N/A   Partly Cloudy
9:16 PM 60.8 °F - 39.2 °F 45% 29.81 in 10.0 mi WNW 18.4 mph 25.3 mph N/A   Mostly Cloudy
9:53 PM 57.9 °F - 33.1 °F 39% 29.83 in 10.0 mi WNW 13.8 mph 24.2 mph N/A   Overcast
10:05 PM 57.2 °F - 33.8 °F 41% 29.84 in 10.0 mi WNW 10.4 mph 21.9 mph N/A   Overcast
10:15 PM 57.2 °F - 33.8 °F 41% 29.85 in 10.0 mi NW 11.5 mph - N/A   Overcast
10:48 PM 53.6 °F - 30.2 °F 41% 29.88 in 10.0 mi NW 13.8 mph 26.5 mph N/A   Mostly Cloudy
10:53 PM 54.0 °F - 30.9 °F 41% 29.87 in 10.0 mi NW 13.8 mph - N/A   Mostly Cloudy
11:06 PM 53.6 °F - 32.0 °F 44% 29.88 in 10.0 mi NW 10.4 mph - N/A   Partly Cloudy
11:53 PM 48.9 °F - 32.0 °F 52% 29.90 in 10.0 mi NNW 18.4 mph 23.0 mph N/A   Partly Cloudy